DW2789 Weather Reports


Display with metric or nautical units.
time (UTC)temp
F
wind
direction
speed
MPH
gust
MPH
rain 1hr
in
rain 24hr
in
rain mn
in
humidity
%
barometer
mb
20260901105938 54 52 0.0 0.0 0.00 0.00 0.00 67 1006.8
20260901104942 54 52 0.0 0.0 0.00 0.00 0.00 64 1006.7
20260901103928 54 52 0.0 0.0 0.00 0.00 0.00 65 1006.7
20260901102935 54 52 0.0 0.0 0.00 0.00 0.00 65 1006.8
20260901101942 55 52 0.0 0.0 0.00 0.00 0.00 66 1006.7
20260901100929 55 52 0.0 0.0 0.00 0.00 0.00 64 1006.7
20260901095931 55 52 0.0 0.0 0.00 0.00 0.00 60 1006.8
20260901094933 55 52 0.0 0.0 0.00 0.00 0.00 62 1006.8
20260901093943 56 52 0.0 0.0 0.00 0.00 0.00 63 1006.8
20260901092930 56 52 0.0 0.0 0.00 0.00 0.00 61 1006.9
20260901091954 57 52 0.0 0.0 0.00 0.00 0.00 58 1006.9
20260901090937 57 52 0.0 0.0 0.00 0.00 0.00 53 1006.8
20260901085943 58 52 0.0 0.0 0.00 0.00 0.00 54 1006.7
20260901084945 58 52 0.0 0.0 0.00 0.00 0.00 53 1006.8
20260901083950 59 52 0.0 0.0 0.00 0.00 0.00 51 1006.8
20260901082932 59 52 0.0 0.0 0.00 0.00 0.00 51 1006.8
20260901081938 59 52 0.0 0.0 0.00 0.00 0.00 51 1006.7
20260901080941 59 52 0.0 0.0 0.00 0.00 0.00 50 1006.7
20260901075944 60 52 0.0 0.0 0.00 0.00 0.00 50 1006.8
20260901074947 60 52 0.0 0.0 0.00 0.00 0.00 51 1006.8
20260901073952 60 52 0.0 0.0 0.00 0.00 0.00 51 1006.7
20260901072938 60 52 0.0 0.0 0.00 0.00 0.00 51 1006.7
20260901071941 60 52 0.0 0.0 0.00 0.00 0.00 51 1006.6
20260901070945 61 52 0.0 0.0 0.00 0.00 0.00 52 1006.6
20260901065927 61 52 0.0 0.0 0.00 0.00 0.00 51 1006.7
20260901064937 61 52 0.0 0.0 0.00 0.00 0.00 52 1006.8
20260901064002 61 52 0.0 0.0 0.00 0.00 0.00 53 1006.7
20260901062945 61 52 0.0 0.0 0.00 0.00 0.00 53 1006.8
20260901061928 61 52 0.0 0.0 0.00 0.00 0.00 48 1006.8
20260901060935 62 52 0.0 0.0 0.00 0.00 0.00 49 1006.8
20260901055940 62 52 0.0 0.0 0.00 0.00 0.00 49 1006.8
20260901054944 63 52 0.0 0.0 0.00 0.00 0.00 50 1006.8
20260901053928 63 52 0.0 0.0 0.00 0.00 0.00 43 1006.8
20260901052936 64 52 0.0 0.0 0.00 0.00 0.00 43 1006.8
20260901051939 64 52 0.0 0.0 0.00 0.00 0.00 43 1006.6
20260901050942 64 52 0.0 0.0 0.00 0.00 0.00 42 1006.6
20260901050004 65 52 0.0 0.0 0.00 0.00 0.00 42 1006.6
20260901044931 65 52 0.0 0.0 0.00 0.00 0.00 41 1006.7
20260901043935 65 52 0.0 0.0 0.00 0.00 0.00 43 1006.7
20260901042938 66 52 0.0 0.0 0.00 0.00 0.00 43 1006.8
20260901041941 66 52 0.0 0.0 0.00 0.00 0.00 43 1006.9
20260901040932 66 52 0.0 0.0 0.00 0.00 0.00 44 1006.9
20260901035953 67 52 0.0 0.0 0.00 0.00 0.00 45 1006.9
20260901034938 67 52 0.0 0.0 0.00 0.00 0.00 44 1006.9
20260901033940 68 52 0.0 0.0 0.00 0.00 0.00 46 1006.8
20260901033003 68 52 0.0 0.0 0.00 0.00 0.00 44 1006.8
20260901031948 69 52 0.0 0.0 0.00 0.00 0.00 43 1006.7
20260901025944 71 52 0.0 0.0 0.00 0.00 0.00 42 1006.8
20260901024948 73 52 0.0 0.0 0.00 0.00 0.00 42 1006.7
20260901023930 75 52 0.0 0.0 0.00 0.00 0.00 41 1006.8
20260901022936 77 52 0.0 0.0 0.00 0.00 0.00 40 1006.8
20260901021958 80 52 0.0 0.0 0.00 0.00 0.00 37 1006.9
20260901021001 82 52 0.0 0.0 0.00 0.00 0.00 37 1007.0
20260901015943 83 52 0.0 0.0 0.00 0.00 0.00 37 1007.1
20260901015004 84 52 0.0 0.0 0.00 0.00 0.00 35 1007.0
20260901013934 84 52 0.0 0.0 0.00 0.00 0.00 32 1007.0
20260901012938 85 52 0.0 3.0 0.00 0.00 0.00 33 1007.1
20260901012001 85 52 0.0 0.0 0.00 0.00 0.00 32 1007.1
20260901005937 86 52 0.0 3.0 0.00 0.00 0.00 31 1007.3
20260901004943 86 52 0.0 1.0 0.00 0.00 0.00 28 1007.3
20260901003931 86 52 0.0 4.0 0.00 0.00 0.00 30 1007.4
20260901002931 86 52 0.0 4.0 0.00 0.00 0.00 29 1007.4
20260901001933 86 52 1.0 5.0 0.00 0.00 0.00 29 1007.5
20260901000942 86 52 2.0 10.0 0.00 0.00 0.00 29 1007.7
20260831235929 86 52 1.0 9.0 0.00 0.00 0.00 27 1007.9
20260831234932 86 52 3.0 10.0 0.00 0.00 0.00 27 1008.0
20260831233954 86 52 2.0 7.0 0.00 0.00 0.00 25 1008.1
20260831232936 86 52 0.0 9.0 0.00 0.00 0.00 28 1008.3
20260831231942 85 53 4.0 10.0 0.00 0.00 0.00 29 1008.4
20260831230927 85 53 2.0 8.0 0.00 0.00 0.00 28 1008.7
20260831225932 85 52 2.0 6.0 0.00 0.00 0.00 30 1008.8
20260831224934 84 53 1.0 5.0 0.00 0.00 0.00 33 1009.0
20260831223941 83 52 2.0 7.0 0.00 0.00 0.00 29 1009.2
20260831222943 83 53 3.0 10.0 0.00 0.00 0.00 31 1009.4
20260831220943 82 52 0.0 5.0 0.00 0.00 0.00 31 1009.7
20260831215933 82 52 3.0 9.0 0.00 0.00 0.00 34 1009.9
20260831214955 81 53 1.0 6.0 0.00 0.00 0.00 32 1010.0
20260831213937 81 53 1.0 8.0 0.00 0.00 0.00 33 1010.2
20260831212939 80 53 4.0 8.0 0.00 0.00 0.00 34 1010.4
20260831211927 80 53 5.0 10.0 0.00 0.00 0.00 33 1010.5
20260831210935 80 53 2.0 8.0 0.00 0.00 0.00 36 1010.5
20260831205939 79 52 0.0 5.0 0.00 0.00 0.00 37 1010.7
20260831204940 79 52 2.0 7.0 0.00 0.00 0.00 37 1010.9
20260831203942 78 53 1.0 5.0 0.00 0.00 0.00 35 1011.1
20260831202933 78 52 0.0 5.0 0.00 0.00 0.00 37 1011.2
20260831201935 77 52 1.0 4.0 0.00 0.00 0.00 37 1011.4
20260831200943 76 53 0.0 0.0 0.00 0.00 0.00 38 1011.6
20260831195946 75 53 0.0 4.0 0.00 0.00 0.00 37 1011.8
20260831194933 74 53 0.0 4.0 0.00 0.00 0.00 39 1011.9
20260831193956 73 53 4.0 8.0 0.00 0.00 0.00 43 1012.0
20260831191932 72 52 2.0 5.0 0.00 0.00 0.00 42 1012.4
20260831190934 72 52 1.0 6.0 0.00 0.00 0.00 41 1012.5
20260831185941 71 52 0.0 4.0 0.00 0.00 0.00 42 1012.7
20260831184946 71 53 1.0 6.0 0.00 0.00 0.00 42 1012.9
20260831183929 71 52 1.0 3.0 0.00 0.00 0.00 44 1013.1
20260831182935 70 52 3.0 5.0 0.00 0.00 0.00 44 1013.1
20260831181946 70 53 1.0 3.0 0.00 0.00 0.00 45 1013.2
20260831180929 69 52 1.0 4.0 0.00 0.00 0.00 43 1013.2
20260831175931 69 52 0.0 0.0 0.00 0.00 0.00 43 1013.5
20260831174936 68 53 0.0 3.0 0.00 0.00 0.00 44 1013.6
20260831173944 68 52 2.0 4.0 0.00 0.00 0.00 46 1013.7
20260831172947 67 52 0.0 5.0 0.00 0.00 0.00 48 1013.7
20260831171931 67 53 0.0 2.0 0.00 0.00 0.00 47 1013.7
20260831170934 67 53 0.0 4.0 0.00 0.00 0.00 48 1013.8
20260831170001 66 53 0.0 0.0 0.00 0.00 0.00 46 1013.7
20260831164943 66 53 0.0 0.0 0.00 0.00 0.00 46 1013.7
20260831163926 65 52 0.0 0.0 0.00 0.00 0.00 46 1013.7
20260831162933 64 52 0.0 0.0 0.00 0.00 0.00 47 1013.9
20260831161941 64 53 0.0 0.0 0.00 0.00 0.00 49 1014.0
20260831160944 63 52 0.0 0.0 0.00 0.00 0.00 51 1014.0
20260831155948 62 52 0.0 0.0 0.00 0.00 0.00 51 1014.0
20260831154930 61 52 0.0 0.0 0.00 0.00 0.00 52 1014.1
20260831153941 60 53 0.0 0.0 0.00 0.00 0.00 52 1014.1
20260831152943 59 53 0.0 0.0 0.00 0.00 0.00 50 1014.2
20260831152005 59 53 0.0 0.0 0.00 0.00 0.00 51 1014.2
20260831150948 58 53 0.0 0.0 0.00 0.00 0.00 50 1014.1
20260831150009 58 53 0.0 0.0 0.00 0.00 0.00 51 1014.1
20260831144934 57 53 0.0 0.0 0.00 0.00 0.00 55 1014.1
20260831143941 57 52 0.0 2.0 0.00 0.00 0.00 53 1014.0
20260831142945 57 51 1.0 4.0 0.00 0.00 0.00 52 1014.0
20260831141948 56 51 0.0 0.0 0.00 0.00 0.00 53 1013.9
20260831140936 56 51 0.0 6.0 0.00 0.00 0.00 54 1013.9
20260831135939 55 51 1.0 6.0 0.00 0.00 0.00 53 1013.9
20260831133936 56 51 0.0 0.0 0.00 0.00 0.00 53 1013.8
20260831132940 56 51 0.0 8.0 0.00 0.00 0.00 53 1013.8
20260831131948 55 51 0.0 3.0 0.00 0.00 0.00 53 1013.8
20260831130950 56 51 0.0 1.0 0.00 0.00 0.00 54 1013.7
20260831124949 56 51 0.0 3.0 0.00 0.00 0.00 53 1013.7
20260831123953 56 51 1.0 6.0 0.00 0.00 0.00 52 1013.7
20260831122936 56 49 0.0 4.0 0.00 0.00 0.00 53 1013.7
20260831121944 56 49 0.0 4.0 0.00 0.00 0.00 52 1013.7
20260831120947 56 49 0.0 4.0 0.00 0.00 0.00 52 1013.7
20260831115930 56 49 0.0 1.0 0.00 0.00 0.00 52 1013.8
20260831114952 56 49 0.0 1.0 0.00 0.00 0.00 51 1013.9
20260831113943 57 49 0.0 0.0 0.00 0.00 0.00 51 1013.9
20260831112947 57 49 0.0 3.0 0.00 0.00 0.00 51 1013.8
20260831111930 57 49 0.0 5.0 0.00 0.00 0.00 51 1013.9
20260831110932 57 49 0.0 4.0 0.00 0.00 0.00 51 1013.9